Info for pilots

Image

Airfield Info:

EBUL
N51 08.7 - E003 28.6
ELEV 95' / 29m
RWY 07 / 25
799m * 45m (CIV) - 2980m (MIL)
Ursel Radio 135.130
Tel Aero Club Brugge : +32(0)9 374 25 75
Tel Vliegclub Ursel : +32(0)9 374 12 90

Operational Hours
FRI: 14h00LT - SS+30 MIN
SAT, SUN and HOL: TKOF and LDG: 10h00LT - SS+30 MIN
After 20h00LT to SS+30 MIN: only LDG allowed (PN)

Local Traffic Regulations
The use of the AD is subject to PPR from the OPR;
AD given in concession to the CIV club outside MIL ACT;
Solo training flights can only be performed after two reconnaissance flights with instructor. The solo training flight must be performed within six weeks after the first reconnaissance flight;
Jet aircraft operations not allowed.

Obstacles:
trees between 10M AGL and 22M AGL, caution when crosswind:
North of the RWY, 75M from CL, along the whole length of the RWY;
South of the RWY, 75M from CL, and at THR RWY 25 from THR RWY 07 to 140M east of THR RWY 07



Image

Image

Watch out!

Flight Procedures
RWY 07 and 25 left hand circuit, 1.200 FT QNH

Image

Taxi procedures:
RWY 07 (TKOF):
taxi on the north side of the RWY to the HLDG position of RWY 07

RWY 07 (LDG):
after landing roll out to the second intersection (THR RWY 25), turn left, turn left again, taxi via the TWY to the first intersection, turn left, cross the RWY (check for landing ACFT), taxi on the south side of the RWY to the AD reporting office

RWY 25 (TKOF):
taxi on the north side of the first intersection, turn left, next turn right, taxi via the TWY to the second intersection, turn right, taxi to the HLDG of RWY 25

RWY 25 (LDG):
after landing roll out to the end of the RWY, taxi on the south side of the RWY to the AD reporting office.





Image

Taxi & Circuit?

Image
Image
Image
Image

Current Metars - Auto refresh

EBOS - Oostende
2021/01/15 14:20 EBOS 151420Z VRB01KT 9999 BKN049 03/M03 Q1030 NOSIG


EBAW - Antwerpen
2021/01/15 14:20 EBAW 151420Z 02003KT 340V070 9999 BKN044 02/M03 Q1029 NOSIG


EBBR - Brussel
2021/01/15 14:20 EBBR 151420Z 01003KT 9999 BKN047 01/M02 Q1029 NOSIG

Source : NOAA.GOV

Current TAFs - Auto refresh

EBOS - Oostende
2021/01/15 12:27 TAF EBOS 151114Z 1512/1618 24005KT 9999 FEW015 BKN030 BECMG 1606/1608 18012KT TEMPO 1610/1618 17015G25KT 3000 -SN BKN005 PROB40 TEMPO 1611/1618 1200 SN BKN003

EBAW - Antwerpen
2021/01/15 12:27 TAF TAF EBAW 151114Z 1512/1521 01004KT 9999 FEW015 BKN035

EBBR - Brussel
2021/01/15 12:27 TAF TAF EBBR 151114Z 1512/1618 02004KT 9999 FEW015 BKN035 PROB30 TEMPO 1601/1607 3500 BR BKN005 BECMG 1610/1612 18012KT TEMPO 1614/1618 3000 -SN BKN005 PROB40 TEMPO 1615/1618 1200 SN BKN003

Source : NOAA.GOV
Image

Webcam

Direction runway 07 :